Погода в Заутеланде

Нидерланды     51°30′06″N   3°28′56″E
темп.,
°C
ветер,
м/с
пор.,
м/с
влажн.,
%
обл.,
%
осадки,
мм/ч
давл.,
гПа
погр.,
м
12 апреля, пн
пн1223:00+6сз56645 0.0 10221156
02:00+5сз66666 0.1 10241041
05:00+5сз666599 0.1 10241069
08:00+5сз4564100 1.2 1025587
11:00+4зсз88685 1.0 1027645
14:00+4зсз66705 1.1 1029798
17:00+5сз45620 0.0 1029547
20:00+5ссз45580 0.0 1029636
13 апреля, вт
вт1323:00+6ссз56615 0.0 1031932
02:00+6сз45705 0.0 1032839
05:00+6сз45685 0.0 1032944
08:00+6сз44695 0.0 1033789
11:00+6ссз22654 0.0 1034558
14:00+5зсз32631 0.0 1034356
17:00+6сз33570 0.0 1033301
20:00+7сз22550 0.0 1032210
14 апреля, ср
ср1423:00+7с12655 0.0 103352
02:00+6в11625 0.0 1032107
05:00+5ююв11655 0.0 103284
08:00+5с23675 0.0 1032463
11:00+6ссв44645 0.0 1033850
14:00+6с55645 0.0 1032909
17:00+6с67685 0.0 1031891
20:00+6с78715 0.0 1031855
15 апреля, чт
чт1523:00+6ссв77665 0.0 1032890
02:00+6ссв66685 0.1 1031964
05:00+5ссв566897 0.1 10311006
08:00+6с7871100 0.4 1030992
11:00+6ссв67715 0.4 1030977
14:00+6ссв676951 0.4 1029625
17:00+7ссв876771 0.2 1029906
20:00+7ссв686770 0.2 1028568
16 апреля, пт
пт1623:00+7св910695 0.3 1029713
02:00+6всв812725 0.3 1029594
05:00+5всв710724 0.0 1029405
08:00+5всв710675 0.0 1029467
11:00+6св79625 0.0 1029724
14:00+7ссв796110 0.0 1029845
17:00+7ссв997295 0.0 1028621
20:00+7ссв9137799 0.0 1028463